Location: Arcizac
(43.0933°N, 0.0112°E)
Time: 16:31:23
(UTC+00:00)

Okean 1-7 - Pass Details

Date: 14 December 2019
Orbit: 590 x 619 km, 82.5° (Epoch: 24 January)

Event Time Altitude Azimuth Distance (km) Brightness Sun altitude
Rises 16:51:08 0° 160° (SSE) 2,853 6.6 -4.9°
Reaches altitude 10° 16:53:33 10° 148° (SSE) 1,959 5.6 -5.3°
Maximum altitude 16:57:16 28° 89° (E) 1,149 4.0 -5.9°
Drops below altitude 10° 17:01:01 10° 30° (NNE) 1,986 5.2 -6.5°
Sets 17:03:29 0° 20° (NNE) 2,900 6.1 -6.9°
